Showing default

CONNECTA T3.1, 58256

Orbit data source: Space-Track

CONNECTA T3.1, 58256 is a payload satellite owned by Plan-S (TR) in SSO that was launched on Sat, 11 Nov 2023 UTC via an FALCON 9 launch vehicle from the Air Force Western Test Range (AFWTR). Payload-class satellites include a variety of spacecraft equipped with specific instruments for various scientific and technological missions. These include communications satellites like Starlink; space stations such as the ISS; scientific satellites like the Hubble; Earth observation satellites from companies like Planet Labs, Umbra, and HawkEye 360; GPS; miniature CubeSats for education and research; and military/defense satellites.

Loading next visibility...
Identifier
58256, 2023-174A
Orbit
SSO
Country
Flag of UnknownUnknown / TURK
Related business
Manufacturer
Plan-S
Mission
Operational Commercial Communications
Bus & Motor
CUBESAT 3U, Unknown motor
Mass
5 kg wet, 5 kg dry
Launch date (UTC)
2023-11-11 (2 years ago)
Launch vehicle
FALCON 9
Launch site
Air Force Western Test Range (AFWTR)
Object type
Payload
Rocket body
Debris
Shape & HBR
Box + 2 Pan, 1.7 m
Radar Cross Section
0.080 m², Small (<0.1 m²)

Expand to show TLE details & history
Last TLE update: 1 day ago

TLE from 1 day ago
0 CONNECTA T3.1
1 58256U 23174A   25300.49334741  .00359934  00000-0  16151-2 0  9997
2 58256  97.3871  28.3128 0006685 268.7692  91.2811 15.83189938110258
Epoch: 2025-10-27T11:50Z
TLE epoch observation values (Epoch: 2025-10-27T11:50:25.216Z)
Latitude
-0.00004°
Longitude
174.61334°
Altitude
324.705 km
Speed
7.713 km/s
True Right ascension
01h 53m 15s
True Declination
0° 00' 00"
Sunlit
Object was in full shadow at epoch
Visualization orbit readout
Latitude
Unknown
Longitude
Unknown
Altitude
Unknown
Speed
Unknown
Apparent Right ascension
Unknown
Apparent Declination
Unknown
Sunlit
N/A
Visualization observer readout
Local Sidereal Time
12:04:41
Azimuth
Unknown
Elevation
Unknown
Doppler factor
Unknown
Orbital elements
Apogee altitude
322.784 km
Perigee altitude
313.831 km
Semi-major axis
6,696.445 km
Eccentricity
0.00067
Inclination
97.3871°
RAAN
28.3128°
Arg. of periapsis
268.7692°
True anomaly
91.35768°
Mean anomaly
91.2811°
Eccentric anomaly
91.31939°
Mean motion
3.96074 °/min
Orbital period
90.89 mins
BSTAR
0.0016151
Loading maneuver chart data...
Computing Atmospheric mass density...
Loading historical data...
Loading historical data...
Loading historical data...
Loading historical data...
Loading historical data...
Loading historical data...
Loading historical data...

Documentation

Showing up to 5 results
|